TimeEST,TemperatureF,Dew PointF,Humidity,Sea Level PressureIn,VisibilityMPH,Wind Direction,Wind SpeedMPH,Gust SpeedMPH,PrecipitationIn,Events,Conditions,WindDirDegrees,DateUTC
12:15 AM,26.4,20.1,77,30.12,10.0,East,4.6,-,N/A,,Clear,80,2013-02-26 05:15:00
12:34 AM,27.3,20.1,74,30.12,10.0,East,3.5,-,N/A,,Clear,80,2013-02-26 05:34:00
12:55 AM,26.6,20.3,77,30.12,10.0,East,3.5,-,N/A,,Clear,100,2013-02-26 05:55:00
1:15 AM,25.7,19.6,78,30.12,10.0,Calm,Calm,-,N/A,,Clear,0,2013-02-26 06:15:00
1:35 AM,23.9,19.2,82,30.11,10.0,Calm,Calm,-,N/A,,Clear,0,2013-02-26 06:35:00
1:55 AM,24.4,19.4,81,30.11,10.0,Calm,Calm,-,N/A,,Clear,0,2013-02-26 06:55:00
2:15 AM,24.4,19.6,82,30.10,10.0,North,3.5,-,N/A,,Clear,360,2013-02-26 07:15:00
2:35 AM,23.4,19.2,84,30.10,10.0,NE,3.5,-,N/A,,Clear,50,2013-02-26 07:35:00
2:55 AM,24.1,19.9,84,30.10,10.0,NNE,3.5,-,N/A,,Clear,30,2013-02-26 07:55:00
3:15 AM,23.4,19.6,85,30.10,10.0,NE,4.6,-,N/A,,Clear,50,2013-02-26 08:15:00
3:35 AM,24.3,20.1,84,30.10,10.0,ENE,5.8,-,N/A,,Clear,60,2013-02-26 08:35:00
3:55 AM,24.4,20.3,84,30.09,10.0,NE,6.9,-,N/A,,Clear,50,2013-02-26 08:55:00
4:15 AM,25.0,20.5,83,30.08,10.0,NE,8.1,-,N/A,,Clear,50,2013-02-26 09:15:00
4:35 AM,25.2,20.8,84,30.07,10.0,ENE,6.9,-,N/A,,Clear,60,2013-02-26 09:35:00
4:54 AM,25.2,20.8,84,30.06,10.0,ENE,6.9,-,N/A,,Clear,60,2013-02-26 09:54:00
5:15 AM,24.8,20.7,84,30.05,10.0,NE,6.9,-,N/A,,Clear,50,2013-02-26 10:15:00
5:35 AM,25.2,20.8,84,30.05,10.0,ENE,6.9,-,N/A,,Clear,70,2013-02-26 10:35:00
5:55 AM,25.5,21.0,83,30.04,10.0,ENE,9.2,-,N/A,,Clear,70,2013-02-26 10:55:00
6:15 AM,25.3,21.0,84,30.03,10.0,East,8.1,-,N/A,,Clear,80,2013-02-26 11:15:00
6:35 AM,25.5,21.2,84,30.02,10.0,ENE,6.9,-,N/A,,Clear,60,2013-02-26 11:35:00
6:55 AM,25.7,21.2,83,30.01,10.0,ENE,8.1,-,N/A,,Clear,60,2013-02-26 11:55:00
7:15 AM,25.7,21.2,83,30.02,10.0,ENE,5.8,-,N/A,,Clear,60,2013-02-26 12:15:00
7:34 AM,25.7,21.2,83,30.01,10.0,NE,5.8,-,N/A,,Clear,40,2013-02-26 12:34:00
7:55 AM,26.4,21.7,82,30.01,10.0,NE,6.9,-,N/A,,Clear,50,2013-02-26 12:55:00
8:15 AM,26.6,21.9,82,30.00,10.0,NE,8.1,-,N/A,,Clear,40,2013-02-26 13:15:00
8:35 AM,27.3,22.5,82,30.01,10.0,NE,9.2,-,N/A,,Clear,40,2013-02-26 13:35:00
8:55 AM,28.0,22.8,81,30.02,10.0,ENE,9.2,-,N/A,,Clear,60,2013-02-26 13:55:00
9:15 AM,28.8,22.8,78,30.00,10.0,ENE,9.2,-,N/A,,Clear,60,2013-02-26 14:15:00
9:34 AM,30.0,23.2,76,29.98,10.0,NE,13.8,18.4,N/A,,Clear,50,2013-02-26 14:34:00
9:55 AM,31.8,23.4,71,29.98,10.0,ENE,12.7,17.3,N/A,,Clear,60,2013-02-26 14:55:00
10:15 AM,32.0,23.4,70,29.96,10.0,ENE,12.7,24.2,N/A,,Clear,70,2013-02-26 15:15:00
10:34 AM,32.4,23.4,69,29.93,10.0,ENE,16.1,23.0,N/A,,Clear,60,2013-02-26 15:34:00
10:55 AM,32.9,23.7,69,29.91,10.0,ENE,13.8,29.9,N/A,,Clear,70,2013-02-26 15:55:00
11:15 AM,33.3,23.9,69,29.89,10.0,ENE,19.6,26.5,N/A,,Clear,60,2013-02-26 16:15:00
11:34 AM,33.8,24.3,68,29.88,10.0,ENE,13.8,26.5,N/A,,Clear,60,2013-02-26 16:34:00
11:55 AM,34.3,24.3,67,29.87,10.0,ENE,17.3,31.1,N/A,,Clear,70,2013-02-26 16:55:00
12:15 PM,34.7,25.0,68,29.86,10.0,ENE,19.6,28.8,N/A,,Clear,60,2013-02-26 17:15:00
12:34 PM,34.7,25.3,69,29.85,10.0,ENE,20.7,32.2,N/A,,Clear,60,2013-02-26 17:34:00
12:55 PM,34.9,25.7,69,29.84,10.0,ENE,18.4,27.6,N/A,,Clear,60,2013-02-26 17:55:00
1:15 PM,34.9,26.1,70,29.83,10.0,ENE,20.7,27.6,N/A,,Clear,60,2013-02-26 18:15:00
1:34 PM,35.1,26.2,70,29.81,10.0,ENE,21.9,29.9,N/A,,Clear,60,2013-02-26 18:34:00
1:55 PM,35.1,26.1,70,29.78,10.0,NE,20.7,31.1,N/A,,Clear,50,2013-02-26 18:55:00
2:15 PM,35.1,26.4,71,29.77,10.0,NE,20.7,24.2,N/A,,Clear,40,2013-02-26 19:15:00
2:35 PM,34.9,26.2,71,29.76,10.0,NE,17.3,29.9,N/A,,Mostly Cloudy,50,2013-02-26 19:35:00
2:55 PM,34.9,26.1,70,29.73,10.0,NE,17.3,27.6,N/A,,Overcast,50,2013-02-26 19:55:00
3:15 PM,35.4,25.7,68,29.72,10.0,NE,24.2,35.7,N/A,,Overcast,50,2013-02-26 20:15:00
3:35 PM,36.0,25.7,66,29.72,10.0,NE,21.9,29.9,N/A,,Overcast,50,2013-02-26 20:35:00
3:55 PM,36.0,25.7,66,29.72,10.0,ENE,17.3,29.9,N/A,,Overcast,60,2013-02-26 20:55:00
4:15 PM,35.8,25.9,67,29.71,10.0,ENE,16.1,34.5,N/A,,Overcast,70,2013-02-26 21:15:00
4:35 PM,35.6,26.2,69,29.71,10.0,ENE,19.6,33.4,N/A,,Overcast,70,2013-02-26 21:35:00
4:55 PM,35.2,26.4,70,29.71,10.0,ENE,20.7,31.1,N/A,,Overcast,60,2013-02-26 21:55:00
5:14 PM,34.9,26.6,72,29.72,10.0,ENE,19.6,29.9,N/A,,Overcast,60,2013-02-26 22:14:00
5:35 PM,34.7,26.8,73,29.72,7.0,ENE,15.0,28.8,N/A,Snow,Light Snow,60,2013-02-26 22:35:00
5:55 PM,33.8,28.2,80,29.73,1.5,ENE,16.1,24.2,N/A,Snow,Light Snow,70,2013-02-26 22:55:00
6:14 PM,32.9,29.3,87,29.72,1.0,ENE,18.4,26.5,N/A,Snow,Light Snow,60,2013-02-26 23:14:00
6:35 PM,32.2,30.2,92,29.72,1.2,NE,13.8,25.3,N/A,Snow,Light Snow,50,2013-02-26 23:35:00
6:55 PM,32.2,30.7,94,29.71,1.8,NE,12.7,24.2,N/A,Snow,Light Snow,50,2013-02-26 23:55:00
7:14 PM,32.4,30.9,94,29.70,1.8,NE,16.1,26.5,N/A,Snow,Light Snow,50,2013-02-27 00:14:00
7:35 PM,32.4,31.1,95,29.69,1.8,NE,18.4,25.3,N/A,Snow,Light Snow,40,2013-02-27 00:35:00
7:55 PM,32.9,31.1,93,29.68,1.8,NE,16.1,24.2,N/A,Snow,Light Snow,50,2013-02-27 00:55:00
8:14 PM,32.9,31.5,94,29.68,2.0,NE,15.0,25.3,N/A,Snow,Light Snow,50,2013-02-27 01:14:00
8:35 PM,33.1,31.6,94,29.67,1.8,NE,18.4,27.6,N/A,Snow,Light Snow,50,2013-02-27 01:35:00
8:55 PM,32.9,31.5,94,29.66,1.5,NE,15.0,24.2,N/A,Snow,Light Snow,50,2013-02-27 01:55:00
9:14 PM,32.9,31.6,95,29.65,1.2,NE,13.8,27.6,N/A,Snow,Light Snow,50,2013-02-27 02:14:00
9:35 PM,32.9,31.6,95,29.65,1.0,ENE,17.3,28.8,N/A,Snow,Snow,60,2013-02-27 02:35:00
9:55 PM,32.7,31.6,96,29.64,1.2,NE,18.4,26.5,N/A,Snow,Light Snow,50,2013-02-27 02:55:00
10:14 PM,32.9,31.5,94,29.63,1.2,ENE,15.0,28.8,N/A,Snow,Light Snow,60,2013-02-27 03:14:00
10:35 PM,32.9,31.5,94,29.62,1.5,NE,17.3,26.5,N/A,Snow,Light Snow,50,2013-02-27 03:35:00
10:55 PM,32.9,31.6,95,29.61,1.5,NE,17.3,27.6,N/A,Snow,Light Snow,50,2013-02-27 03:55:00
11:14 PM,32.9,31.6,95,29.60,2.0,NE,15.0,23.0,N/A,Snow,Light Snow,50,2013-02-27 04:14:00
11:35 PM,32.9,31.6,95,29.58,3.0,NE,17.3,24.2,N/A,Snow,Light Snow,40,2013-02-27 04:35:00
11:55 PM,32.9,31.8,96,29.58,1.8,NE,15.0,27.6,N/A,Snow,Light Snow,50,2013-02-27 04:55:00